TimeCST,TemperatureF,Dew PointF,Humidity,Sea Level PressureIn,VisibilityMPH,Wind Direction,Wind SpeedMPH,Gust SpeedMPH,PrecipitationIn,Events,Conditions,WindDirDegrees,DateUTC
12:56 AM,43.9,39.9,86,30.03,10.0,Calm,Calm,-,N/A,,Clear,0,2012-11-07 06:56:00
1:56 AM,41.9,39.9,93,30.01,6.0,Calm,Calm,-,N/A,,Clear,0,2012-11-07 07:56:00
2:56 AM,43.0,41.0,93,30.01,8.0,Variable,4.6,-,N/A,,Overcast,0,2012-11-07 08:56:00
3:56 AM,41.9,39.9,93,30.01,8.0,Calm,Calm,-,N/A,,Scattered Clouds,0,2012-11-07 09:56:00
4:56 AM,41.0,38.8,92,30.02,7.0,Calm,Calm,-,N/A,,Clear,0,2012-11-07 10:56:00
5:56 AM,39.9,38.8,96,30.02,6.0,Calm,Calm,-,N/A,,Clear,0,2012-11-07 11:56:00
6:56 AM,39.9,39.9,100,30.04,4.0,Calm,Calm,-,N/A,,Mostly Cloudy,0,2012-11-07 12:56:00
7:56 AM,43.9,39.9,86,30.05,10.0,NW,4.6,-,N/A,,Clear,320,2012-11-07 13:56:00
8:56 AM,48.9,39.9,71,30.05,10.0,Variable,4.6,-,N/A,,Clear,0,2012-11-07 14:56:00
9:56 AM,52.0,41.0,66,30.04,10.0,Variable,5.8,-,N/A,,Partly Cloudy,0,2012-11-07 15:56:00
10:19 AM,53.6,42.8,67,30.01,10.0,Calm,Calm,-,N/A,,Mostly Cloudy,0,2012-11-07 16:19:00
10:30 AM,53.6,39.2,58,30.00,10.0,WNW,8.1,-,N/A,,Mostly Cloudy,290,2012-11-07 16:30:00
10:56 AM,52.0,38.8,61,30.03,10.0,West,9.2,-,N/A,,Mostly Cloudy,270,2012-11-07 16:56:00
11:56 AM,50.0,37.9,63,30.02,10.0,NW,8.1,-,N/A,,Overcast,320,2012-11-07 17:56:00
12:56 PM,48.9,36.0,61,30.03,10.0,NNW,13.8,17.3,0.00,,Overcast,330,2012-11-07 18:56:00
1:56 PM,48.9,34.9,58,30.03,10.0,NNW,11.5,-,N/A,,Overcast,330,2012-11-07 19:56:00
2:56 PM,48.9,34.9,58,30.06,10.0,NNW,15.0,19.6,N/A,,Mostly Cloudy,340,2012-11-07 20:56:00
3:56 PM,46.9,34.9,63,30.09,10.0,North,12.7,-,0.00,,Overcast,350,2012-11-07 21:56:00
4:56 PM,43.0,36.0,76,30.11,10.0,Calm,Calm,-,N/A,,Clear,0,2012-11-07 22:56:00
5:56 PM,39.9,36.0,86,30.14,10.0,Calm,Calm,-,N/A,,Clear,0,2012-11-07 23:56:00
6:56 PM,39.9,36.0,86,30.15,10.0,Calm,Calm,-,N/A,,Scattered Clouds,0,2012-11-08 00:56:00
7:56 PM,38.8,36.0,89,30.17,10.0,Calm,Calm,-,N/A,,Clear,0,2012-11-08 01:56:00
8:56 PM,37.9,34.9,89,30.18,10.0,Calm,Calm,-,N/A,,Clear,0,2012-11-08 02:56:00
9:56 PM,37.9,36.0,93,30.18,10.0,Calm,Calm,-,N/A,,Clear,0,2012-11-08 03:56:00
10:56 PM,36.0,34.9,96,30.19,8.0,Calm,Calm,-,N/A,,Clear,0,2012-11-08 04:56:00
11:41 PM,33.8,33.8,100,30.17,2.0,Calm,Calm,-,N/A,,Clear,0,2012-11-08 05:41:00
11:56 PM,34.0,34.0,100,30.20,3.0,Calm,Calm,-,N/A,,Clear,0,2012-11-08 05:56:00